| time (UTC) | temp F | wind direction | speed MPH | gust MPH | rain 1hr in | rain 24hr in | rain mn in | humidity % | barometer mb |
| 20260904221543 | 78 | 276 | 0.0 | 0.0 | 0.00 | 0.00 | 0.00 | 83 | 1023.9 |
| 20260904220047 | 79 | 276 | 0.0 | 3.0 | 0.00 | 0.00 | 0.00 | 81 | 1023.8 |
| 20260904214539 | 79 | 275 | 1.0 | 2.0 | 0.00 | 0.00 | 0.00 | 82 | 1023.7 |
| 20260904213043 | 79 | 275 | 0.0 | 4.0 | 0.00 | 0.00 | 0.00 | 82 | 1023.8 |
| 20260904211538 | 79 | 274 | 0.0 | 2.0 | 0.00 | 0.00 | 0.00 | 83 | 1023.9 |
| 20260904210037 | 78 | 133 | 0.0 | 1.0 | 0.00 | 0.00 | 0.00 | 84 | 1023.9 |
| 20260904204536 | 78 | 132 | 0.0 | 1.0 | 0.00 | 0.00 | 0.00 | 86 | 1024.0 |
| 20260904203042 | 78 | 132 | 0.0 | 1.0 | 0.00 | 0.00 | 0.00 | 86 | 1024.0 |
| 20260904201537 | 78 | 132 | 0.0 | 0.0 | 0.00 | 0.00 | 0.00 | 86 | 1023.9 |
| 20260904200034 | 79 | 132 | 0.0 | 1.0 | 0.00 | 0.00 | 0.00 | 86 | 1024.0 |
| 20260904194536 | 78 | 133 | 0.0 | 0.0 | 0.00 | 0.00 | 0.00 | 86 | 1023.9 |
| 20260904193034 | 79 | 132 | 0.0 | 0.0 | 0.00 | 0.00 | 0.00 | 85 | 1023.9 |
| 20260904191536 | 80 | 133 | 0.0 | 0.0 | 0.00 | 0.00 | 0.00 | 83 | 1023.8 |
| 20260904190031 | 81 | 132 | 0.0 | 0.0 | 0.00 | 0.00 | 0.00 | 83 | 1023.6 |
| 20260904184539 | 81 | 133 | 0.0 | 0.0 | 0.00 | 0.00 | 0.00 | 82 | 1023.4 |
| 20260904183031 | 82 | 132 | 0.0 | 0.0 | 0.00 | 0.00 | 0.00 | 81 | 1023.2 |
| 20260904181535 | 82 | 132 | 0.0 | 1.0 | 0.00 | 0.00 | 0.00 | 79 | 1022.8 |
| 20260904180029 | 83 | 119 | 2.0 | 6.0 | 0.00 | 0.00 | 0.00 | 77 | 1022.8 |
| 20260904174529 | 84 | 245 | 0.0 | 4.0 | 0.00 | 0.00 | 0.00 | 75 | 1022.8 |
| 20260904173029 | 85 | 138 | 1.0 | 4.0 | 0.00 | 0.00 | 0.00 | 72 | 1022.7 |
| 20260904171538 | 86 | 69 | 0.0 | 4.0 | 0.00 | 0.00 | 0.00 | 68 | 1022.5 |
| 20260904170027 | 87 | 115 | 0.0 | 6.0 | 0.00 | 0.00 | 0.00 | 66 | 1022.3 |
| 20260904164526 | 88 | 97 | 0.0 | 6.0 | 0.00 | 0.00 | 0.00 | 64 | 1022.1 |
| 20260904163028 | 88 | 134 | 1.0 | 5.0 | 0.00 | 0.00 | 0.00 | 65 | 1022.2 |
| 20260904161526 | 88 | 115 | 2.0 | 7.0 | 0.00 | 0.00 | 0.00 | 65 | 1022.2 |
| 20260904160030 | 90 | 159 | 3.0 | 7.0 | 0.00 | 0.00 | 0.00 | 63 | 1022.2 |
| 20260904154524 | 90 | 114 | 2.0 | 9.0 | 0.00 | 0.00 | 0.00 | 62 | 1022.1 |
| 20260904153028 | 91 | 130 | 2.0 | 6.0 | 0.00 | 0.00 | 0.00 | 60 | 1022.0 |
| 20260904151524 | 93 | 214 | 0.0 | 7.0 | 0.00 | 0.00 | 0.00 | 59 | 1021.9 |
| 20260904150036 | 94 | 123 | 1.0 | 7.0 | 0.00 | 0.00 | 0.00 | 57 | 1022.0 |
| 20260904144521 | 94 | 128 | 1.0 | 8.0 | 0.00 | 0.00 | 0.00 | 54 | 1021.8 |
| 20260904143031 | 94 | 116 | 2.0 | 12.0 | 0.00 | 0.00 | 0.00 | 51 | 1021.9 |
| 20260904141523 | 96 | 41 | 3.0 | 7.0 | 0.00 | 0.00 | 0.00 | 49 | 1021.8 |
| 20260904140024 | 96 | 80 | 4.0 | 8.0 | 0.00 | 0.00 | 0.00 | 47 | 1021.9 |
| 20260904134518 | 96 | 118 | 4.0 | 14.0 | 0.00 | 0.00 | 0.00 | 48 | 1021.9 |
| 20260904133025 | 95 | 108 | 5.0 | 12.0 | 0.00 | 0.00 | 0.00 | 47 | 1021.9 |
| 20260904131515 | 96 | 122 | 5.0 | 13.0 | 0.00 | 0.00 | 0.00 | 47 | 1022.0 |
| 20260904130013 | 96 | 144 | 5.0 | 10.0 | 0.00 | 0.00 | 0.00 | 49 | 1022.1 |
| 20260904124512 | 95 | 165 | 3.0 | 10.0 | 0.00 | 0.00 | 0.00 | 51 | 1022.2 |
| 20260904123009 | 96 | 73 | 3.0 | 9.0 | 0.00 | 0.00 | 0.00 | 50 | 1022.2 |
| 20260904121506 | 95 | 129 | 5.0 | 11.0 | 0.00 | 0.00 | 0.00 | 53 | 1022.4 |
| 20260904120012 | 96 | 145 | 3.0 | 9.0 | 0.00 | 0.00 | 0.00 | 50 | 1022.6 |
| 20260904114600 | 96 | 131 | 3.0 | 7.0 | 0.00 | 0.00 | 0.00 | 47 | 1022.6 |
| 20260904113058 | 96 | 197 | 1.0 | 7.0 | 0.00 | 0.00 | 0.00 | 48 | 1022.8 |
| 20260904111600 | 96 | 176 | 2.0 | 8.0 | 0.00 | 0.00 | 0.00 | 40 | 1023.0 |
| 20260904110050 | 96 | 233 | 2.0 | 7.0 | 0.00 | 0.00 | 0.00 | 41 | 1023.2 |
| 20260904104547 | 95 | 127 | 1.0 | 7.0 | 0.00 | 0.00 | 0.00 | 42 | 1023.3 |
| 20260904103045 | 93 | 215 | 2.0 | 5.0 | 0.00 | 0.00 | 0.00 | 47 | 1023.4 |
| 20260904101539 | 92 | 160 | 1.0 | 4.0 | 0.00 | 0.00 | 0.00 | 51 | 1023.7 |
| 20260904100037 | 90 | 123 | 0.0 | 4.0 | 0.00 | 0.00 | 0.00 | 54 | 1023.8 |
| 20260904094545 | 90 | 156 | 3.0 | 6.0 | 0.00 | 0.00 | 0.00 | 55 | 1023.9 |
| 20260904093035 | 89 | 339 | 0.0 | 4.0 | 0.00 | 0.00 | 0.00 | 57 | 1023.9 |
| 20260904091530 | 88 | 92 | 0.0 | 3.0 | 0.00 | 0.00 | 0.00 | 61 | 1024.0 |
| 20260904090027 | 86 | 138 | 1.0 | 4.0 | 0.00 | 0.00 | 0.00 | 64 | 1023.9 |
| 20260904084525 | 85 | 128 | 1.0 | 2.0 | 0.00 | 0.00 | 0.00 | 64 | 1024.0 |
| 20260904083022 | 84 | 142 | 0.0 | 3.0 | 0.00 | 0.00 | 0.00 | 67 | 1023.9 |
| 20260904081518 | 83 | 274 | 0.0 | 1.0 | 0.00 | 0.00 | 0.00 | 69 | 1023.9 |
| 20260904080015 | 81 | 274 | 0.0 | 0.0 | 0.00 | 0.00 | 0.00 | 72 | 1023.8 |
| 20260904074511 | 79 | 274 | 0.0 | 1.0 | 0.00 | 0.00 | 0.00 | 76 | 1023.9 |
| 20260904073006 | 77 | 274 | 0.0 | 4.0 | 0.00 | 0.00 | 0.00 | 80 | 1023.8 |
| 20260904071504 | 75 | 280 | 0.0 | 4.0 | 0.00 | 0.00 | 0.00 | 83 | 1023.8 |
| 20260904070003 | 74 | 264 | 1.0 | 3.0 | 0.00 | 0.00 | 0.00 | 85 | 1023.8 |
| 20260904064502 | 72 | 272 | 0.0 | 3.0 | 0.00 | 0.00 | 0.00 | 89 | 1023.9 |
| 20260904063001 | 70 | 273 | 0.0 | 0.0 | 0.00 | 0.00 | 0.00 | 93 | 1023.9 |
| 20260904061606 | 69 | 272 | 0.0 | 0.0 | 0.00 | 0.00 | 0.00 | 94 | 1023.8 |
| 20260904060058 | 68 | 273 | 0.0 | 0.0 | 0.00 | 0.00 | 0.00 | 93 | 1023.7 |
| 20260904054558 | 68 | 273 | 0.0 | 0.0 | 0.00 | 0.00 | 0.00 | 93 | 1023.6 |
| 20260904053059 | 68 | 272 | 0.0 | 0.0 | 0.00 | 0.00 | 0.00 | 93 | 1023.6 |
| 20260904051557 | 69 | 272 | 0.0 | 0.0 | 0.00 | 0.00 | 0.00 | 93 | 1023.6 |
| 20260904050055 | 69 | 273 | 0.0 | 0.0 | 0.00 | 0.00 | 0.00 | 93 | 1023.5 |
| 20260904044552 | 69 | 273 | 0.0 | 0.0 | 0.00 | 0.00 | 0.00 | 93 | 1023.7 |
| 20260904043059 | 69 | 273 | 0.0 | 0.0 | 0.00 | 0.00 | 0.00 | 93 | 1023.7 |
| 20260904041547 | 70 | 273 | 0.0 | 0.0 | 0.00 | 0.00 | 0.00 | 93 | 1023.9 |
| 20260904040046 | 70 | 273 | 0.0 | 0.0 | 0.00 | 0.00 | 0.00 | 93 | 1023.9 |
| 20260904034550 | 71 | 273 | 0.0 | 0.0 | 0.00 | 0.00 | 0.00 | 92 | 1024.0 |
| 20260904033042 | 71 | 272 | 0.0 | 0.0 | 0.00 | 0.00 | 0.00 | 92 | 1024.0 |
| 20260904031543 | 72 | 272 | 0.0 | 0.0 | 0.00 | 0.00 | 0.00 | 91 | 1024.2 |
| 20260904030038 | 73 | 273 | 0.0 | 1.0 | 0.00 | 0.00 | 0.00 | 90 | 1024.2 |
| 20260904024535 | 73 | 273 | 0.0 | 0.0 | 0.00 | 0.00 | 0.00 | 90 | 1024.3 |
| 20260904023032 | 74 | 273 | 0.0 | 3.0 | 0.00 | 0.00 | 0.00 | 89 | 1024.4 |
| 20260904021537 | 74 | 274 | 0.0 | 4.0 | 0.00 | 0.00 | 0.00 | 90 | 1024.5 |
| 20260904020030 | 74 | 280 | 1.0 | 5.0 | 0.00 | 0.00 | 0.00 | 90 | 1024.6 |
| 20260904014529 | 74 | 257 | 1.0 | 4.0 | 0.00 | 0.00 | 0.00 | 91 | 1024.7 |
| 20260904013026 | 74 | 274 | 0.0 | 3.0 | 0.00 | 0.00 | 0.00 | 91 | 1024.8 |
| 20260904011527 | 74 | 249 | 0.0 | 3.0 | 0.00 | 0.00 | 0.00 | 90 | 1024.9 |
| 20260904010023 | 74 | 249 | 0.0 | 4.0 | 0.00 | 0.00 | 0.00 | 90 | 1025.1 |
| 20260904004522 | 75 | 273 | 0.0 | 3.0 | 0.00 | 0.00 | 0.00 | 90 | 1025.2 |
| 20260904003020 | 75 | 267 | 1.0 | 2.0 | 0.00 | 0.00 | 0.00 | 90 | 1025.3 |
| 20260904001617 | 75 | 243 | 0.0 | 4.0 | 0.00 | 0.00 | 0.00 | 90 | 1025.4 |
| 20260904000046 | 75 | 262 | 0.0 | 3.0 | 0.00 | 0.00 | 0.00 | 90 | 1025.5 |
| 20260903234514 | 75 | 262 | 1.0 | 3.0 | 0.00 | 0.00 | 0.00 | 90 | 1025.6 |
| 20260903233012 | 75 | 270 | 0.0 | 4.0 | 0.00 | 0.00 | 0.00 | 90 | 1025.7 |
| 20260903231512 | 75 | 285 | 0.0 | 4.0 | 0.00 | 0.00 | 0.00 | 90 | 1025.8 |
| 20260903230020 | 76 | 277 | 0.0 | 4.0 | 0.00 | 0.00 | 0.00 | 89 | 1025.8 |
| 20260903224527 | 76 | 290 | 1.0 | 4.0 | 0.00 | 0.00 | 0.00 | 89 | 1025.8 |
| 20260903223008 | 76 | 264 | 0.0 | 4.0 | 0.00 | 0.00 | 0.00 | 88 | 1025.7 |